Location: Newark
(25.0000°N, 73.5000°E)
Time: 04:57:19
(UTC+00:00)

Altair - Pass Details

Date: 03 March 2021
Orbit: 1501 x 1683 km, 47.2° (Epoch: 12 April)

Event Time Altitude Azimuth Distance (km) Brightness Sun altitude
Rises 14:56:04 0° 275° (W) 4,632 11.4 -25.0°
Reaches altitude 10° 14:59:55 10° 289° (WNW) 3,662 10.4 -25.9°
Maximum altitude 15:07:01 24° 340° (NNW) 2,750 9.0 -27.5°
Enters shadow 15:14:08 10° 30° (NNE) 3,710 9.3 -29.1°
Drops below altitude 10° 15:14:17 10° 31° (NNE) 3,748 - -29.1°
Sets 15:18:18 0° 45° (NE) 4,764 - -30.0°
